Location: Miss�
(46.9484°N, 0.1922°W)
Time: 04:03:50
(UTC+00:00)

Cosmos 2154 Rocket - Pass Details

Date: 02 March 2021
Orbit: 966 x 996 km, 82.9° (Epoch: 17 April)

Event Time Altitude Azimuth Distance (km) Brightness Sun altitude
Rises 18:51:37 0° 182° (S) 3,658 7.0 -11.7°
Reaches altitude 10° 18:54:07 10° 181° (S) 2,711 6.3 -12.1°
Maximum altitude 19:00:19 79° 96° (E) 993 3.9 -13.1°
Drops below altitude 10° 19:06:32 10° 11° (N) 2,718 6.3 -14.2°
Sets 19:09:03 0° 10° (N) 3,669 7.0 -14.6°
